Vertical_Velocity
-2 -1 1 -2 -2 -0 -2 -1 -1 -2 -1 -2 -2 -2 -3 -1 1 -1 -4 -3 -0 -2 -0 -5 0 1 2 -1 1 2 -2 -3 -2 -1 1 1 -0 6 4 1 -4 -1 -3 -1 1
2 -0 -3 -1 0 0 0 -0 -1 -1 -1 -1 -2 -2 -3 -4 0 -1 -2 2 -2 -2 -0 -2 -4 -1 4 1 1 1 -2 2 -1 0 1 3 3 4 -2 -4 -2 -6 -1 -5 -1
0 2 2 -2 -2 -1 3 -0 -5 -1 1 -2 -1 -1 -1 -4 -0 -3 -2 -5 3 1 2 -3 -2 -3 -1 4 0 0 -8 7 -1 -2 -4 5 0 -2 1 1 -1 -4 4 1 -5
1 -0 1 3 -1 -1 0 -1 -1 -3 1 -1 -1 -1 -4 -1 -3 -2 2 -4 -1 0 0 -3 -0 -1 -3 2 2 -1 -4 4 4 -0 -0 1 8 2 6 -3 2 2 0 -0 -2
-2 3 2 -1 -1 -0 -1 -1 2 0 -3 0 -2 0 -3 -2 -2 -2 -2 -5 0 -2 -0 0 -1 1 0 -3 1 -0 -0 -2 4 3 0 6 2 7 0 3 1 1 -1 1 -0
-5 1 0 4 1 -1 0 -2 0 -1 2 -5 -1 1 -2 -10 -4 0 1 1 -4 -5 -1 2 0 -2 3 0 -0 -2 -3 4 -2 1 2 -2 5 3 -3 2 -0 -2 0 0 -1
2 1 3 1 -0 -1 -3 -1 -4 -1 -2 2 -5 -1 -6 2 -3 0 -1 -1 -1 -2 -0 -1 -1 1 -1 2 -1 0 -6 -3 1 -2 2 4 -1 -10 -1 -1 3 -3 -3 -1 0
14 6 13 1 -1 -1 -2 -2 -0 -3 -1 -4 2 4 -15 2 -3 -0 -7 3 -1 0 -0 -1 -1 3 -3 2 -2 -0 -0 -2 3 1 -4 5 -15 2 2 2 -1 2 1 -4 -5
6 1 -8 -13 -6 -2 -2 -2 -7 -1 1 2 -6 2 -13 -3 -7 -5 0 1 -1 -0 -1 -2 2 -1 3 -1 1 -1 -0 -3 -3 -0 3 1 -5 7 3 -1 -1 1 -0 1 -3
-7 -7 -2 4 -5 -4 -3 -1 -2 -1 -2 1 -5 -5 7 -3 -5 -6 -2 3 -2 1 -0 -1 4 2 -6 0 -15 0 -1 0 -5 -7 2 4 -5 -9 4 5 -1 -1 -4 -4 -3
-1 -4 -2 -7 -1 -6 3 2 -1 -5 -4 1 0 -4 -2 -2 0 -1 0 0 -2 -6 -1 2 3 -15 -0 13 8 2 4 1 -5 2 -2 5 5 -3 5 5 2 1 -7 -3 -5
5 1 1 -0 -3 -6 -2 -1 -5 -5 -17 2 0 -7 9 4 -3 5 2 2 1 -4 3 -3 -14 1 -1 -2 3 2 1 -6 -9 -0 6 3 -3 1 6 -6 0 4 1 -3 -1
-5 6 -2 8 -1 8 -0 -3 2 -5 -4 -17 1 -1 1 3 -7 6 1 0 -1 5 1 -6 6 0 2 -0 3 2 0 -7 2 2 3 0 -33 -13 -4 1 1 -2 5 -0 2
2 5 -6 10 -3 -3 -12 3 -1 -3 -8 -5 -6 -10 -3 1 -16 8 4 5 -6 -5 11 1 -1 1 3 1 0 5 3 4 -1 10 -7 6 -33 -19 -5 -4 -2 -4 -5 2 -0
-1 -5 6 4 7 4 -0 4 -4 3 1 7 6 -7 2 8 -5 -3 7 1 1 3 5 -12 5 -3 -3 -6 11 -0 -2 5 2 -2 8 17 -0 1 -2 -4 -10 -6 -5 -3 1
0 2 0 3 1 -0 2 2 -1 5 -16 0 -4 3 3 1 1 2 1 4 6 7 2 8 7 5 -1 1 7 14 6 -1 4 5 3 16 -1 -86 -8 -25 -2 -0 -5 -0 -2
-0 0 -3 0 2 7 -0 -0 -3 -1 3 2 -1 -0 -2 2 4 1 2 -4 2 2 1 10 1 7 7 2 0 2 4 -1 3 6 -10 -7 10 -70 3 4 -2 5 4 6 0
-0 2 1 8 6 1 0 -0 1 3 5 2 1 4 -1 2 4 3 1 -1 1 0 1 0 -13 10 10 -10 2 13 12 -8 -2 -1 -5 4 -12 -28 -8 -2 2 1 -1 4 1
2 -4 25 0 6 -1 6 4 -3 -0 -3 -1 1 -3 2 0 7 1 0 -1 4 8 -5 1 -6 -2 6 3 25 -9 -3 5 5 2 5 -4 -3 -11 9 7 2 -6 -6 -4 1
4 -1 -3 -0 20 14 17 -4 4 -1 -0 -1 1 -2 -1 -1 1 -0 2 4 7 4 7 1 -15 -5 6 -1 7 5 15 6 13 2 1 -9 -5 -33 -3 2 14 10 5 7 3
4 3 17 5 7 21 1 -2 3 2 1 0 1 -1 -0 -1 0 1 0 2 6 5 4 8 6 -23 -4 -7 1 2 2 4 12 5 1 -0 -17 13 -7 -1 -0 1 -2 -3 2
4 2 1 11 8 13 2 10 1 3 2 -1 0 -6 -5 -1 -2 -2 0 -0 0 3 -6 -1 -2 -16 8 -8 -3 9 -10 9 14 -11 1 1 -58 45 1 4 11 1 -5 -2 -0
0 3 1 1 -7 -5 -3 -3 1 1 3 1 5 -1 4 -2 -1 3 2 -6 -1 -2 6 2 4 -6 -47 -9 15 8 2 4 5 12 -10 14 -38 25 -0 0 1 -8 -10 -10 -6
-1 -3 -1 -4 -3 0 -0 -3 2 3 -0 -5 -6 -6 3 -4 3 -18 -14 -5 4 5 1 2 -2 -7 -3 -4 4 -13 -2 16 1 2 -7 -18 -28 -32 13 -10 -10 -8 -10 -9 4
-2 -2 -0 -5 -7 -3 -1 -2 3 1 1 4 -8 0 6 -4 1 -16 11 5 -3 4 2 7 -7 4 -3 -7 5 2 -13 -8 12 5 11 -8 18 -37 20 -3 -7 -10 -7 9 -2
1 -2 -4 -1 0 -1 0 -3 -2 2 3 -2 -7 5 -1 -10 4 9 1 10 5 13 1 -5 -13 1 -12 2 6 -4 5 -7 -8 -7 9 -12 -14 -0 13 6 5 4 -9 -9 22
-2 -1 2 0 -2 -3 -9 9 1 1 5 -2 -2 -6 0 9 2 -5 2 0 -10 -8 6 12 0 9 -14 17 2 -13 -3 -5 -4 1 -1 -2 2 -13 -18 17 15 8 5 -4 -6
Height
3126 3127 3129 3131 3132 3133 3134 3135 3135 3135 3135 3135 3135 3135 3136 3138 3138 3138 3138 3138 3137 3136 3135 3135 3135 3136 3136 3136 3137 3138 3139 3138 3140 3142 3143 3141 3143 3145 3145 3146 3148 3151 3153 3155 3155
3120 3122 3124 3125 3126 3128 3128 3129 3130 3131 3132 3132 3132 3132 3133 3134 3135 3134 3135 3133 3133 3132 3132 3131 3132 3133 3134 3134 3134 3134 3135 3135 3138 3139 3140 3140 3140 3142 3144 3144 3145 3148 3150 3152 3153
3114 3116 3118 3119 3120 3122 3123 3124 3124 3125 3126 3127 3126 3127 3128 3129 3132 3129 3130 3130 3129 3128 3127 3127 3128 3129 3131 3131 3130 3129 3131 3134 3135 3136 3137 3138 3137 3139 3140 3141 3143 3146 3147 3149 3151
3109 3111 3111 3112 3114 3117 3118 3120 3121 3121 3121 3122 3122 3123 3124 3126 3131 3126 3126 3127 3127 3126 3125 3124 3125 3126 3128 3129 3127 3127 3129 3131 3132 3133 3133 3135 3136 3136 3136 3139 3142 3144 3145 3146 3148
3102 3104 3105 3106 3108 3110 3112 3114 3115 3116 3116 3117 3118 3119 3120 3121 3125 3122 3123 3124 3123 3123 3123 3122 3122 3124 3123 3125 3125 3123 3126 3126 3130 3130 3131 3132 3132 3133 3133 3134 3137 3140 3141 3143 3144
3095 3098 3100 3101 3102 3104 3106 3108 3109 3110 3111 3112 3113 3113 3114 3115 3117 3117 3118 3119 3120 3120 3120 3119 3118 3120 3120 3120 3121 3121 3122 3122 3124 3127 3128 3128 3129 3129 3130 3130 3133 3136 3138 3139 3141
3088 3091 3093 3094 3096 3098 3099 3101 3102 3104 3105 3106 3107 3107 3105 3112 3111 3112 3113 3114 3115 3116 3117 3116 3116 3116 3115 3117 3116 3117 3117 3118 3119 3122 3123 3125 3122 3122 3126 3126 3127 3130 3134 3136 3137
3081 3083 3085 3087 3089 3091 3092 3095 3097 3099 3099 3100 3101 3100 3095 3104 3105 3106 3108 3109 3108 3110 3112 3111 3111 3112 3111 3114 3113 3114 3112 3112 3115 3118 3120 3120 3113 3120 3120 3121 3124 3125 3126 3129 3131
3071 3073 3077 3081 3082 3084 3085 3088 3092 3092 3092 3093 3094 3095 3091 3096 3098 3099 3102 3103 3103 3104 3107 3107 3106 3107 3107 3109 3109 3108 3104 3107 3111 3114 3116 3114 3108 3115 3114 3115 3117 3117 3120 3123 3125
3064 3068 3072 3075 3077 3079 3080 3082 3083 3084 3085 3084 3085 3091 3089 3090 3092 3096 3096 3097 3099 3101 3103 3102 3100 3100 3104 3105 3099 3101 3101 3101 3105 3111 3110 3107 3102 3108 3108 3106 3108 3111 3113 3115 3118
3057 3062 3063 3067 3070 3072 3074 3077 3079 3079 3076 3080 3081 3082 3082 3082 3085 3089 3091 3093 3094 3098 3098 3096 3096 3093 3098 3100 3098 3100 3098 3097 3101 3106 3104 3101 3098 3101 3102 3097 3097 3101 3104 3108 3111
3050 3054 3058 3061 3062 3065 3068 3070 3072 3075 3068 3072 3074 3072 3076 3075 3074 3081 3083 3087 3088 3090 3092 3091 3086 3092 3093 3095 3093 3093 3093 3092 3094 3099 3098 3093 3086 3089 3091 3089 3090 3092 3094 3098 3102
3043 3049 3050 3055 3054 3057 3062 3064 3066 3067 3065 3060 3066 3063 3067 3069 3064 3074 3076 3077 3077 3081 3083 3082 3082 3087 3086 3087 3087 3085 3085 3088 3088 3091 3091 3088 3067 3075 3078 3079 3082 3083 3087 3090 3093
3035 3040 3044 3046 3050 3051 3055 3058 3061 3065 3064 3054 3057 3053 3053 3057 3055 3062 3068 3071 3069 3071 3077 3074 3074 3077 3079 3079 3084 3078 3081 3083 3084 3085 3083 3085 3057 3059 3065 3068 3070 3075 3077 3080 3085
3031 3035 3037 3038 3040 3045 3050 3053 3056 3062 3063 3052 3047 3048 3050 3052 3050 3054 3056 3057 3059 3063 3071 3066 3065 3068 3069 3071 3077 3072 3075 3077 3079 3079 3079 3073 3079 3042 3053 3054 3059 3064 3068 3073 3077
3026 3029 3032 3033 3038 3042 3044 3048 3052 3059 3053 3045 3046 3046 3046 3045 3047 3050 3053 3052 3053 3056 3060 3062 3065 3063 3064 3069 3070 3072 3069 3070 3072 3075 3072 3057 3074 3018 3043 3044 3049 3054 3058 3064 3068
3019 3023 3026 3032 3036 3038 3040 3044 3053 3048 3043 3045 3044 3042 3044 3048 3047 3049 3048 3051 3054 3053 3054 3059 3055 3058 3062 3064 3067 3066 3065 3066 3067 3067 3055 3056 3062 3019 3035 3038 3042 3045 3052 3057 3060
3011 3019 3022 3029 3030 3034 3037 3043 3043 3038 3039 3040 3042 3041 3044 3047 3046 3047 3046 3048 3051 3053 3052 3053 3050 3052 3052 3053 3055 3055 3059 3060 3054 3056 3049 3052 3040 3030 3034 3036 3037 3041 3047 3050 3054
3006 3013 3019 3023 3026 3030 3034 3036 3033 3034 3038 3040 3040 3041 3044 3045 3047 3045 3046 3046 3047 3050 3051 3050 3047 3048 3050 3053 3054 3052 3052 3050 3050 3051 3054 3045 3032 3031 3032 3033 3035 3036 3041 3045 3047
3002 3009 3015 3019 3021 3024 3028 3027 3029 3031 3035 3038 3039 3040 3041 3043 3044 3044 3044 3046 3044 3045 3048 3047 3045 3042 3046 3049 3051 3051 3053 3051 3050 3046 3041 3035 3035 3023 3026 3029 3031 3031 3034 3038 3039
2999 3004 3009 3012 3017 3020 3021 3022 3026 3028 3033 3037 3037 3037 3038 3041 3042 3043 3044 3043 3043 3043 3045 3044 3045 3034 3041 3042 3043 3048 3045 3046 3044 3041 3032 3029 3021 3017 3021 3024 3024 3027 3029 3031 3031
2995 3000 3005 3007 3015 3013 3018 3020 3022 3023 3029 3032 3034 3035 3037 3039 3039 3041 3040 3040 3039 3039 3042 3042 3038 3037 3034 3036 3037 3038 3039 3038 3037 3034 3028 3024 3017 3017 3018 3021 3019 3020 3022 3024 3025
2994 2997 3001 3005 3007 3009 3014 3017 3019 3021 3024 3026 3028 3030 3033 3034 3038 3036 3035 3036 3037 3038 3039 3038 3037 3037 3027 3032 3031 3032 3031 3029 3027 3029 3024 3019 3008 3006 3009 3012 3013 3013 3016 3017 3016
2993 2996 2999 3001 3004 3008 3011 3013 3015 3015 3018 3020 3022 3026 3027 3029 3033 3031 3031 3032 3031 3032 3033 3035 3036 3038 3039 3035 3031 3029 3027 3027 3023 3021 3015 3010 3004 2998 3000 3004 3005 3006 3008 3009 3009
2990 2992 2994 2997 3001 3005 3008 3008 3009 3011 3014 3015 3016 3018 3023 3023 3024 3023 3026 3026 3026 3026 3026 3028 3027 3030 3029 3029 3025 3021 3021 3021 3020 3014 3010 3006 2999 2991 2994 2994 2994 2995 2999 3000 3001
2986 2989 2992 2995 2997 3000 3002 3004 3007 3009 3009 3010 3011 3013 3014 3016 3020 3020 3022 3021 3020 3020 3021 3022 3021 3022 3019 3019 3019 3012 3010 3008 3011 3008 3000 2997 2993 2989 2988 2985 2985 2986 2986 2994 2995
2983 2986 2989 2990 2992 2996 2997 3000 3002 3004 3005 3005 3008 3007 3009 3011 3011 3010 3010 3011 3013 3014 3017 3019 3017 3016 3012 3009 3007 3007 3001 3000 3000 2997 2995 2990 2984 2984 2980 2976 2977 2979 2978 2983 2987